Scottsbluff, NE

7:57 PM MDT on October 19, 2019 (GMT -0600)
Heilig

Weather History for KBFF - June, 2019

Change the Weather History Date:

Sunday, June 2, 2019

  Actual Average Record
Temperature  
Mean Temperature 67 °F -  
Max Temperature 82 °F 77 °F 97 °F (1977)
Min Temperature 52 °F 46 °F 31 °F (1969)
Cooling Degree Days 2    
Growing Degree Days 17 (Base 50)    
Moisture  
Dew Point 53 °F    
Average Humidity 68    
Maximum Humidity 100    
Minimum Humidity 32    
Precipitation  
Precipitation 0.00 in - - ()
Sea Level Pressure  
Sea Level Pressure 29.87 in    
Wind  
Wind Speed 10 mph (SE)    
Max Wind Speed 20 mph    
Max Gust Speed 29 mph    
Visibility 9 miles    
Events Rain , Thunderstorm    
Averages and records for this station are not official NWS values.
T = Trace of Precipitation, MM = Missing Value Source: NWS Daily Summary

Daily Weather History Graph

Daily Weather History Graph

Search for Another Location

Airport or City:

Astronomy

Jun. 02, 2019 Rise Set
Actual Time 5:21 AM MDT 8:23 PM MDT
Civil Twilight 4:47 AM MDT 8:57 PM MDT
Nautical Twilight 4:05 AM MDT 9:40 PM MDT
Astronomical Twilight 3:14 AM MDT 10:31 PM MDT
Moon 5:04 AM MDT (6/2) 7:44 PM MDT (6/2)
Length of Visible Light 16h 09m
Length of Day
15h 02m
Waning Crescent, 1% of the Moon is Illuminated
Jun 2
Waning Crescent
Jun 3
New
Jun 10
First Quarter
Jun 17
Full
Jun 25
Last Quarter

Hourly Weather History & Observations

Time (MDT) Temp. Heat Index Dew Point Humidity Pressure Visibility Wind Dir Wind Speed Gust Speed Precip Events Conditions
12:53 AM 54.0 °F - 51.1 °F 90% 29.95 in 10.0 mi East 6.9 mph - N/A   Clear
1:53 AM 54.0 °F - 51.1 °F 90% 29.94 in 10.0 mi East 8.1 mph - N/A   Clear
2:53 AM 54.0 °F - 53.1 °F 97% 29.93 in 10.0 mi East 8.1 mph - N/A   Clear
3:53 AM 53.1 °F - 51.1 °F 93% 29.92 in 10.0 mi ESE 6.9 mph - N/A   Clear
4:53 AM 53.1 °F - 52.0 °F 96% 29.91 in 7.0 mi ESE 9.2 mph - N/A   Clear
5:53 AM 52.0 °F - 52.0 °F 100% 29.91 in 5.0 mi East 8.1 mph - N/A   Clear
6:53 AM 55.0 °F - 54.0 °F 96% 29.91 in 7.0 mi ESE 10.4 mph - N/A   Clear
7:53 AM 59.0 °F - 55.0 °F 87% 29.91 in 8.0 mi ESE 10.4 mph - N/A   Clear
8:53 AM 64.9 °F - 55.0 °F 70% 29.91 in 10.0 mi SE 9.2 mph - N/A   Clear
9:53 AM 72.0 °F - 57.0 °F 59% 29.89 in 10.0 mi SSE 12.7 mph - N/A   Clear
10:53 AM 73.9 °F - 57.9 °F 57% 29.88 in 10.0 mi SSE 15.0 mph 24.2 mph N/A   Clear
11:53 AM 75.9 °F - 55.9 °F 50% 29.86 in 10.0 mi South 17.3 mph - N/A   Clear
12:53 PM 78.1 °F - 57.0 °F 48% 29.84 in 10.0 mi SE 19.6 mph 24.2 mph N/A   Clear
1:53 PM 78.1 °F - 57.0 °F 48% 29.82 in 10.0 mi SSE 13.8 mph 19.6 mph N/A   Clear
2:53 PM 81.0 °F 81.3 °F 59.0 °F 47% 29.80 in 10.0 mi SE 13.8 mph 20.7 mph N/A   Clear
3:53 PM 78.1 °F - 57.0 °F 48% 29.81 in 10.0 mi South 10.4 mph - N/A   Clear
4:53 PM 75.0 °F - 59.0 °F 57% 29.78 in 10.0 mi SE 9.2 mph - N/A   Clear
5:53 PM 73.9 °F - 50.0 °F 43% 29.78 in 10.0 mi SSE 15.0 mph 28.8 mph 0.00 in Rain Light Rain
5:56 PM 73.9 °F - 48.9 °F 41% 29.87 in 10.0 mi SE 17.3 mph 28.8 mph 0.00 in Rain , Thunderstorm Light Rain
6:21 PM 73.0 °F - 48.0 °F 41% 29.89 in 10.0 mi SSE 15.0 mph - 0.00 in   Clear
6:53 PM 75.0 °F - 46.9 °F 37% 29.81 in 10.0 mi Variable 3.5 mph - 0.00 in   Clear
7:53 PM 69.1 °F - 52.0 °F 54% 29.88 in 10.0 mi South 10.4 mph - N/A   Clear
8:53 PM 62.1 °F - 53.1 °F 72% 29.82 in 10.0 mi Calm Calm - N/A   Clear
9:53 PM 59.0 °F - 53.1 °F 81% 29.86 in 10.0 mi North 6.9 mph - N/A   Clear
10:53 PM 57.9 °F - 53.1 °F 84% 29.85 in 10.0 mi South 3.5 mph - N/A   Clear
11:53 PM 53.1 °F - 52.0 °F 96% 29.87 in 10.0 mi West 10.4 mph - N/A   Clear